Location: Igon
(43.1667°N, 0.2333°W)
Time: 09:43:11
(UTC+00:00)

PAYLOAD B - Pass Details

Date: 29 November 2020
Orbit: 849 x 871 km, 99.1° (Epoch: 24 January)

Event Time Altitude Azimuth Distance (km) Brightness Sun altitude
Rises 06:16:37 0° 13° (NNE) 3,434 7.3 -9.8°
Reaches altitude 10° 06:19:00 10° 13° (NNE) 2,491 6.6 -9.4°
Maximum altitude 06:24:32 85° 287° (WNW) 860 4.2 -8.5°
Drops below altitude 10° 06:30:01 10° 199° (SSW) 2,467 6.7 -7.6°
Sets 06:32:22 0° 198° (SSW) 3,399 7.4 -7.2°
